Volver al catálogo

SL-12 DEB

LostHEO
NORAD 41680·DEBRIS·🇷🇺 Russia

Lanzado Oct 26, 2007 desde Baikonur Cosmodrome

Loading…

Próximos Pases (próximas 24 horas)

TLE

ObsoletoSource: Space-Track

Época: Dec 7, 2016, 02:09 UTC

1 41680U 07052M   16342.08982156  .00006365  00000-0  62759-1 0  9998
2 41680  64.4676  20.4104 4840762  28.0525 351.5239  5.30914690 40995

Sigue SL-12 DEB en tiempo real con AllMySat

Download on the App Store